Weather History for Minneapolis, MN

Change the Weather History Date:

Friday, November 25, 2011

  Actual Average Record
Temperature  
Mean Temperature 49 °F 28 °F  
Max Temperature 54 °F 36 °F 62 °F (1914)
Min Temperature 44 °F 21 °F -18 °F (1880)
Degree Days  
Heating Degree Days 16 37  
Month to date heating degree days 617 748  
Since 1 July heating degree days 1112 1428  
Cooling Degree Days 0 0  
Month to date cooling degree days 0 0  
Year to date cooling degree days 1061 753  
Moisture  
Dew Point 42 °F    
Average Humidity 73    
Maximum Humidity 86    
Minimum Humidity 59    
Precipitation  
Precipitation 0.00 in 0.05 in 0.97 in (1896)
Month to date precipitation 0.21 1.50  
Year to date precipitation 25.83 29.18  
Snow  
Snow 0.00 in 0.50 in 5.30 in (1952)
Month to date snowfall 3.0 7.2  
Since 1 July snowfall 3.0 7.8  
Since 1 September snowfall 3.0 7.8  
Snow Depth 0.00 in    
Sea Level Pressure  
Sea Level Pressure 29.68 in    
Wind  
Wind Speed 7 mph (South)    
Max Wind Speed 13 mph    
Max Gust Speed 16 mph    
Visibility 8 miles    
Events      
T = Trace of Precipitation, MM = Missing Value Source: NWS Daily Summary

Daily Weather History Graph

Daily Weather History Graph

Search for Another Location

Airport:

Trip Planner

Search our weather history database for the weather conditions in past years. The results will help you decide how hot, cold, wet, or windy it might be!

Date:

Astronomy

Nov. 25, 2011 Rise Set
Actual Time 7:23 AM CST 4:36 PM CST
Civil Twilight 6:50 AM CST 5:08 PM CST
Nautical Twilight 6:14 AM CST 5:45 PM CST
Astronomical Twilight 5:39 AM CST 6:20 PM CST
Moon 7:54 AM CST (11/25) 5:01 PM CST (11/25)
Length of Visible Light 10h 18m
Length of Day
9h 13m
New Moon, 0% of the Moon is Illuminated
Nov 25
New Moon
Dec 2
First Quarter
Dec 10
Full
Dec 17
Last Quarter
Dec 24
New

Hourly Weather History & Observations

Time (CST) Temp. Windchill Dew Point Humidity Pressure Visibility Wind Dir Wind Speed Gust Speed Precip Events Conditions
12:53 AM 53.1 °F - 39.0 °F 59% 29.69 in 10.0 mi SSW 4.6 mph - N/A   Mostly Cloudy
1:53 AM 51.8 °F - 39.2 °F 62% 29.68 in 10.0 mi SSW 4.6 mph - N/A   Mostly Cloudy
2:53 AM 50.0 °F - 39.9 °F 68% 29.68 in 10.0 mi SSW 6.9 mph - N/A   Mostly Cloudy
3:53 AM 48.2 °F - 39.2 °F 71% 29.66 in 10.0 mi SSW 4.6 mph - N/A   Mostly Cloudy
4:53 AM 48.0 °F - 39.9 °F 74% 29.67 in 10.0 mi South 4.6 mph - N/A   Mostly Cloudy
5:53 AM 46.4 °F 43.5 °F 39.2 °F 76% 29.67 in 10.0 mi South 5.8 mph - N/A   Mostly Cloudy
6:53 AM 46.0 °F 43.9 °F 39.9 °F 79% 29.68 in 10.0 mi SSW 4.6 mph - N/A   Mostly Cloudy
7:53 AM 45.0 °F 42.6 °F 39.9 °F 82% 29.69 in 10.0 mi SW 4.6 mph - N/A   Overcast
8:53 AM 46.0 °F 42.5 °F 41.0 °F 83% 29.70 in 9.0 mi SSW 6.9 mph - N/A   Overcast
9:53 AM 46.9 °F - 42.1 °F 83% 29.70 in 9.0 mi SSW 4.6 mph - N/A   Overcast
10:53 AM 48.9 °F - 43.0 °F 80% 29.70 in 10.0 mi South 8.1 mph - N/A   Overcast
11:17 AM 50.0 °F - 42.8 °F 76% 29.68 in 9.0 mi South 5.8 mph - N/A   Overcast
11:51 AM 50.0 °F - 42.8 °F 76% 29.67 in 9.0 mi SSW 9.2 mph - N/A   Overcast
11:53 AM 51.1 °F - 43.0 °F 74% 29.68 in 9.0 mi SSW 10.4 mph - N/A   Overcast
12:15 PM 50.0 °F - 42.8 °F 76% 29.65 in 9.0 mi South 10.4 mph - N/A   Overcast
12:38 PM 51.8 °F - 42.8 °F 71% 29.66 in 8.0 mi South 4.6 mph - N/A   Overcast
1:53 PM 51.1 °F - 44.1 °F 77% 29.67 in 7.0 mi South 9.2 mph - N/A   Overcast
2:43 PM 51.8 °F - 42.8 °F 71% 29.65 in 6.0 mi SSE 12.7 mph - N/A   Haze
2:53 PM 51.1 °F - 43.0 °F 74% 29.66 in 6.0 mi South 6.9 mph - N/A   Haze
3:53 PM 51.1 °F - 43.0 °F 74% 29.67 in 6.0 mi South 10.4 mph - N/A   Haze
4:53 PM 50.0 °F - 43.0 °F 77% 29.67 in 7.0 mi ESE 6.9 mph - N/A   Overcast
5:53 PM 51.1 °F - 44.1 °F 77% 29.68 in 7.0 mi SE 6.9 mph - N/A   Overcast
6:53 PM 50.0 °F - 44.1 °F 80% 29.69 in 6.0 mi ESE 8.1 mph - N/A   Haze
7:53 PM 50.0 °F - 44.1 °F 80% 29.68 in 6.0 mi SE 9.2 mph - N/A   Haze
8:53 PM 51.1 °F - 45.0 °F 80% 29.69 in 6.0 mi SE 11.5 mph - N/A   Haze
9:53 PM 50.0 °F - 45.0 °F 83% 29.68 in 5.0 mi SE 10.4 mph - N/A   Haze
10:53 PM 51.1 °F - 45.0 °F 80% 29.68 in 5.0 mi SSE 9.2 mph - N/A   Haze
11:53 PM 50.0 °F - 44.6 °F 82% 29.67 in 5.0 mi SE 8.1 mph - N/A   Haze